When you browse on this site, cookies collect data to enhance your experience and personalize the content and advertising you see.
Visit our Privacy Policy to learn more. By continuing to use the site, you agree to this use of cookies and data.
  • In Österreich
  • Länderverzeichnis
  • Für 7 Tage
  • Wassertemperatur
  • Wetterkarte
  • News
  • Widgets
  • user-avatar
    Anmelden

    Stündliche Wetter Bialystok

    Heute, 5 April, Sonntag

    Zeit Temperatur Niederschläge Wind Luftdruck Luftfeuchtigkeit
    00:00 +3°C° 0 mm 1 m/S 759 mmHg 68%
    01:00 +2°C° 0 mm 1 m/S 759 mmHg 71%
    02:00 +2°C° 0 mm 1 m/S 760 mmHg 74%
    03:00 +2°C° 0 mm 1 m/S 760 mmHg 75%
    04:00 +1°C° 0 mm 1 m/S 760 mmHg 76%
    05:00 +1°C° 0 mm 1 m/S 761 mmHg 78%
    06:00 +2°C° 0 mm 1 m/S 761 mmHg 72%
    07:00 +2°C° 0 mm 0 m/S 761 mmHg 67%
    08:00 +4°C° 0 mm 0 m/S 762 mmHg 61%
    09:00 +6°C° 0 mm 1 m/S 763 mmHg 55%
    10:00 +8°C° 0 mm 1 m/S 763 mmHg 48%
    11:00 +9°C° 0 mm 1 m/S 763 mmHg 42%
    12:00 +10°C° 0 mm 1 m/S 763 mmHg 39%
    13:00 +11°C° 0 mm 1 m/S 763 mmHg 36%
    14:00 +12°C° 0 mm 1 m/S 763 mmHg 34%
    15:00 +12°C° 0 mm 1 m/S 763 mmHg 34%
    16:00 +12°C° 0 mm 1 m/S 762 mmHg 34%
    17:00 +12°C° 0 mm 1 m/S 762 mmHg 34%
    18:00 +9°C° 0 mm 0 m/S 762 mmHg 39%
    19:00 +8°C° 0 mm 0 m/S 762 mmHg 44%
    20:00 +6°C° 0 mm 0 m/S 762 mmHg 48%
    21:00 +7°C° 0 mm 1 m/S 763 mmHg 50%
    22:00 +6°C° 0 mm 1 m/S 763 mmHg 51%
    23:00 +6°C° 0 mm 1 m/S 763 mmHg 53%

    Morgen, 6 April, Montag

    Zeit Temperatur Niederschläge Wind Luftdruck Luftfeuchtigkeit
    00:00 +5°C° 0 mm 1 m/S 763 mmHg 54%
    01:00 +4°C° 0 mm 2 m/S 763 mmHg 55%
    02:00 +3°C° 0 mm 2 m/S 763 mmHg 57%
    03:00 +3°C° 0 mm 2 m/S 763 mmHg 57%
    04:00 +3°C° 0 mm 2 m/S 763 mmHg 57%
    05:00 +2°C° 0 mm 2 m/S 763 mmHg 57%
    06:00 +3°C° 0 mm 2 m/S 763 mmHg 54%
    07:00 +3°C° 0 mm 3 m/S 763 mmHg 51%
    08:00 +4°C° 0 mm 3 m/S 763 mmHg 48%
    09:00 +7°C° 0 mm 3 m/S 763 mmHg 44%
    10:00 +8°C° 0 mm 4 m/S 763 mmHg 40%
    11:00 +11°C° 0 mm 4 m/S 763 mmHg 36%
    12:00 +12°C° 0 mm 4 m/S 763 mmHg 35%
    13:00 +12°C° 0 mm 4 m/S 763 mmHg 34%
    14:00 +13°C° 0 mm 4 m/S 763 mmHg 34%
    15:00 +13°C° 0 mm 4 m/S 762 mmHg 34%
    16:00 +13°C° 0 mm 4 m/S 762 mmHg 35%
    17:00 +13°C° 0 mm 4 m/S 762 mmHg 36%
    18:00 +12°C° 0 mm 3 m/S 762 mmHg 41%
    19:00 +10°C° 0 mm 3 m/S 761 mmHg 46%
    20:00 +8°C° 0 mm 3 m/S 761 mmHg 50%
    21:00 +8°C° 0 mm 3 m/S 761 mmHg 52%
    22:00 +7°C° 0 mm 3 m/S 762 mmHg 54%
    23:00 +5°C° 0 mm 3 m/S 762 mmHg 56%

    übermorgen, 7 April, Dienstag

    Zeit Temperatur Niederschläge Wind Luftdruck Luftfeuchtigkeit
    00:00 +5°C° 0 mm 3 m/S 762 mmHg 58%
    01:00 +4°C° 0 mm 3 m/S 761 mmHg 60%
    02:00 +4°C° 0 mm 3 m/S 761 mmHg 62%
    03:00 +4°C° 0 mm 3 m/S 761 mmHg 64%
    04:00 +3°C° 0 mm 3 m/S 761 mmHg 66%
    05:00 +3°C° 0 mm 3 m/S 761 mmHg 68%
    06:00 +4°C° 0 mm 3 m/S 761 mmHg 66%
    07:00 +5°C° 0 mm 4 m/S 761 mmHg 64%
    08:00 +7°C° 0 mm 4 m/S 761 mmHg 62%
    09:00 +10°C° 0 mm 4 m/S 761 mmHg 57%
    10:00 +12°C° 0 mm 4 m/S 761 mmHg 52%
    11:00 +14°C° 0 mm 4 m/S 760 mmHg 46%
    12:00 +15°C° 0 mm 5 m/S 760 mmHg 44%
    13:00 +16°C° 0 mm 5 m/S 760 mmHg 41%
    14:00 +17°C° 0 mm 5 m/S 760 mmHg 38%
    15:00 +17°C° 0 mm 5 m/S 760 mmHg 39%
    16:00 +16°C° 0 mm 5 m/S 759 mmHg 39%
    17:00 +16°C° 0 mm 5 m/S 759 mmHg 39%
    18:00 +15°C° 0 mm 4 m/S 759 mmHg 46%
    19:00 +13°C° 0 mm 3 m/S 759 mmHg 53%
    20:00 +12°C° 0 mm 2 m/S 759 mmHg 60%
    21:00 +10°C° 0 mm 2 m/S 759 mmHg 64%
    22:00 +10°C° 0 mm 2 m/S 759 mmHg 68%
    23:00 +9°C° 0 mm 2 m/S 760 mmHg 73%

    8 April, Mittwoch

    Zeit Temperatur Niederschläge Wind Luftdruck Luftfeuchtigkeit
    00:00 +8°C° 0 mm 2 m/S 760 mmHg 79%
    01:00 +8°C° 0 mm 2 m/S 760 mmHg 85%
    02:00 +7°C° 0 mm 2 m/S 760 mmHg 91%
    03:00 +7°C° 0 mm 2 m/S 760 mmHg 90%
    04:00 +6°C° 0 mm 2 m/S 760 mmHg 89%
    05:00 +6°C° 0 mm 1 m/S 760 mmHg 88%
    06:00 +7°C° 0 mm 1 m/S 760 mmHg 82%
    07:00 +8°C° 0 mm 1 m/S 760 mmHg 75%
    08:00 +9°C° 0 mm 1 m/S 760 mmHg 68%
    09:00 +11°C° 0 mm 1 m/S 760 mmHg 60%
    10:00 +13°C° 0 mm 1 m/S 760 mmHg 53%
    11:00 +15°C° 0 mm 1 m/S 760 mmHg 45%
    12:00 +15°C° 0 mm 1 m/S 760 mmHg 41%
    13:00 +16°C° 0 mm 1 m/S 759 mmHg 38%
    14:00 +18°C° 0 mm 1 m/S 759 mmHg 34%
    15:00 +18°C° 0 mm 1 m/S 758 mmHg 34%
    16:00 +18°C° 0 mm 1 m/S 758 mmHg 34%
    17:00 +18°C° 0 mm 1 m/S 757 mmHg 35%
    18:00 +15°C° 0 mm 1 m/S 757 mmHg 39%
    19:00 +13°C° 0 mm 1 m/S 757 mmHg 44%
    20:00 +11°C° 0 mm 0 m/S 756 mmHg 49%
    21:00 +11°C° 0 mm 1 m/S 756 mmHg 50%
    22:00 +11°C° 0 mm 1 m/S 756 mmHg 51%
    23:00 +10°C° 0 mm 1 m/S 756 mmHg 52%

    9 April, Donnerstag

    Zeit Temperatur Niederschläge Wind Luftdruck Luftfeuchtigkeit
    00:00 +10°C° 0 mm 1 m/S 756 mmHg 53%
    01:00 +9°C° 0 mm 2 m/S 755 mmHg 54%
    02:00 +8°C° 0 mm 2 m/S 755 mmHg 55%
    03:00 +9°C° 0 mm 2 m/S 754 mmHg 56%
    04:00 +9°C° 0 mm 3 m/S 754 mmHg 57%
    05:00 +9°C° 0 mm 3 m/S 754 mmHg 59%
    06:00 +10°C° 0 mm 3 m/S 753 mmHg 62%
    07:00 +10°C° 0 mm 3 m/S 753 mmHg 65%
    08:00 +11°C° 0 mm 3 m/S 753 mmHg 68%
    09:00 +12°C° 0 mm 4 m/S 752 mmHg 64%
    10:00 +13°C° 0 mm 4 m/S 752 mmHg 61%
    11:00 +14°C° 0 mm 4 m/S 752 mmHg 58%
    12:00 +15°C° 0 mm 5 m/S 751 mmHg 55%
    13:00 +16°C° 0 mm 5 m/S 751 mmHg 52%
    14:00 +17°C° 0 mm 5 m/S 751 mmHg 49%
    15:00 +17°C° 0.1 mm 5 m/S 750 mmHg 51%
    16:00 +17°C° 0.1 mm 4 m/S 750 mmHg 53%
    17:00 +17°C° 0.1 mm 4 m/S 749 mmHg 56%
    18:00 +14°C° 0.3 mm 4 m/S 749 mmHg 64%
    19:00 +13°C° 0.3 mm 4 m/S 749 mmHg 72%
    20:00 +12°C° 0.3 mm 4 m/S 749 mmHg 81%
    21:00 +10°C° 0.1 mm 3 m/S 749 mmHg 81%
    22:00 +9°C° 0.1 mm 3 m/S 749 mmHg 82%
    23:00 +8°C° 0.1 mm 3 m/S 750 mmHg 83%

    10 April, Freitag

    Zeit Temperatur Niederschläge Wind Luftdruck Luftfeuchtigkeit
    00:00 +7°C° 0 mm 3 m/S 750 mmHg 86%
    01:00 +7°C° 0 mm 3 m/S 750 mmHg 89%
    02:00 +5°C° 0 mm 3 m/S 750 mmHg 92%
    03:00 +5°C° 0 mm 3 m/S 751 mmHg 92%
    04:00 +4°C° 0 mm 3 m/S 751 mmHg 92%
    05:00 +4°C° 0 mm 4 m/S 751 mmHg 92%
    06:00 +4°C° 0 mm 4 m/S 752 mmHg 85%
    07:00 +5°C° 0 mm 4 m/S 752 mmHg 78%
    08:00 +5°C° 0 mm 4 m/S 753 mmHg 71%
    09:00 +6°C° 0 mm 4 m/S 753 mmHg 62%
    10:00 +7°C° 0 mm 4 m/S 754 mmHg 53%
    11:00 +8°C° 0 mm 4 m/S 754 mmHg 44%
    12:00 +10°C° 0 mm 4 m/S 754 mmHg 42%
    13:00 +10°C° 0 mm 4 m/S 754 mmHg 40%
    14:00 +11°C° 0 mm 4 m/S 754 mmHg 37%
    15:00 +11°C° 0 mm 4 m/S 754 mmHg 39%
    16:00 +11°C° 0 mm 4 m/S 754 mmHg 41%
    17:00 +10°C° 0 mm 5 m/S 754 mmHg 43%
    18:00 +8°C° 0 mm 4 m/S 754 mmHg 48%
    19:00 +8°C° 0 mm 3 m/S 754 mmHg 54%
    20:00 +7°C° 0 mm 3 m/S 754 mmHg 60%
    21:00 +6°C° 0 mm 2 m/S 754 mmHg 60%
    22:00 +5°C° 0 mm 2 m/S 754 mmHg 60%
    23:00 +4°C° 0 mm 2 m/S 754 mmHg 60%
    Mehr zeigen